ARIANE 5 DEB (SYLDA), 27511

Orbit data source: Space-Track

ARIANE 5 DEB (SYLDA), 27511 is space debris in HEO originally from a launch on Wed, 28 Aug 2002 UTC launched from the French Guiana (FRGUI). Debris objects in space refer to the collection of defunct objects orbiting the Earth. Examples of debris include non-operational satellites, rocket bodies, and fragments generated from explosions, collisions, or faulty payload assembly.

Loading next visibility...
Identifier
27511, 2002-040D
Orbit
HEO
Last TLE update
7 hours ago
Origin
Manufacturer
Astrium
Mission
Spacecraft
Bus & Motor
SYLDA 5, Unknown motor
Mass
440 kg wet, 440 kg dry
Launch date (UTC)
2002-08-28 (23 years ago)
Launch vehicle
Unknown
Launch site
French Guiana (FRGUI)
Object type
Payload
Rocket body
Debris
Shape & HBR
Cyl, 4.9 m
Radar Cross Section
25.270 m², Large (>1 m²)

Expand to show TLE details & history

TLE from 7 hours ago
0 ARIANE 5 DEB (SYLDA)
1 27511U 02040D   25127.56093087  .00000333  00000-0  40958-2 0  9994
2 27511   5.3444 244.6621 7162341 238.1636 151.8472  2.25769761186712
Epoch: 2025-05-07T13:27Z
Definitive object data (Epoch: 2025-05-07T13:27:44.427Z)
Latitude
4.17982°
Longitude
-131.65938°
Altitude
34,996.012 km
Speed
1.74 km/s
True Right ascension
19h 43m 40s
True Declination
4° 10' 32"
Sunlit
Object was in daylight at TLE epoch
Visualization TLE readout
Latitude
0.98947°
Longitude
-172.27091°
Altitude
16,794.349 km
Speed
4.262 km/s
Apparent Right ascension
17h 00m 49s
Apparent Declination
-7° 27' 09"
Sunlit
Object is in daylight
Visualization observer readout
Local Sidereal Time
04:58:55
Azimuth
359.121° N
Elevation
-57.533°
Doppler factor
1
Orbital elements
Apogee altitude
35,755.31 km
Perigee altitude
588.299 km
Semi-major axis
24,549.942 km
Eccentricity
0.7162341
Inclination
5.3444°
RAAN
244.6621°
Arg. of periapsis
238.1636°
True anomaly
173.25236°
Mean anomaly
151.8472°
Eccentric anomaly
163.50142°
Mean motion
0.56424 °/min
BSTAR
0.0040958
Orbital period
638.02 mins
Loading maneuver chart data...
Loading SW <> Apogee altitude chart data...
Loading historical data...
Loading historical data...
Loading historical data...
Loading historical data...
Loading historical data...
Loading historical data...
Loading historical data...

ARIANE 5 DEB (SYLDA) Visibility forecast

Observer location: undefined°, undefined°

Span
Click to sort rows by Start time (UTC) header in descending order
Start Az.
Max El. time (UTC)
Max El. Az.
Max El.
End time (UTC)
End Az.
588 mins2025-05-08 06:38:35.873Z199.86° SSW2025-05-08 12:43:35.873Z179.386° S37.123°2025-05-08 16:26:35.873Z137.318° SSE
|